Time,TemperatureF,DewpointF,PressureIn,WindDirection,WindDirectionDegrees,WindSpeedMPH,WindSpeedGustMPH,Humidity,HourlyPrecipIn,Conditions,Clouds,dailyrainin,SoftwareType,DateUTC
2013-05-06 00:01:00,59.0,36.9,30.11,SSE,157,3.8,8.5,44,0.00,,,0.00,WUHU21636XXSP,2013-05-06 04:01:00,
2013-05-06 00:06:00,58.8,36.7,30.11,SSE,157,3.1,4.9,44,0.00,,,0.00,WUHU21636XXSP,2013-05-06 04:06:00,
2013-05-06 00:11:00,59.0,36.9,30.11,SSE,157,2.6,4.6,44,0.00,,,0.00,WUHU21636XXSP,2013-05-06 04:11:00,
2013-05-06 00:16:00,58.8,36.7,30.11,SE,135,0.0,4.6,44,0.00,,,0.00,WUHU21636XXSP,2013-05-06 04:16:00,
2013-05-06 00:21:00,58.3,36.3,30.11,SSE,157,0.0,4.2,44,0.00,,,0.00,WUHU21636XXSP,2013-05-06 04:21:00,
2013-05-06 00:26:00,57.9,36.5,30.11,SSE,157,0.0,0.0,45,0.00,,,0.00,WUHU21636XXSP,2013-05-06 04:26:00,
2013-05-06 00:31:00,57.4,36.7,30.11,SSE,157,0.8,0.8,46,0.00,,,0.00,WUHU21636XXSP,2013-05-06 04:31:00,
2013-05-06 00:36:00,56.8,36.1,30.11,SE,135,3.5,3.5,46,0.00,,,0.00,WUHU21636XXSP,2013-05-06 04:36:00,
2013-05-06 00:41:00,56.8,36.1,30.11,SSE,157,0.0,3.5,47,0.00,,,0.00,WUHU21636XXSP,2013-05-06 04:41:00,
2013-05-06 00:46:00,56.5,36.9,30.11,SSE,157,0.0,3.5,48,0.00,,,0.00,WUHU21636XXSP,2013-05-06 04:46:00,
2013-05-06 00:51:00,56.8,36.7,30.11,SSE,157,0.0,2.4,47,0.00,,,0.00,WUHU21636XXSP,2013-05-06 04:51:00,
2013-05-06 00:56:00,57.2,36.0,30.11,SSE,157,4.2,4.2,45,0.00,,,0.00,WUHU21636XXSP,2013-05-06 04:56:00,
2013-05-06 01:01:00,58.8,36.7,30.11,SSE,157,0.8,4.2,44,0.00,,,0.00,WUHU21636XXSP,2013-05-06 05:01:00,
2013-05-06 01:06:00,58.6,37.2,30.11,SSE,157,3.8,4.2,45,0.00,,,0.00,WUHU21636XXSP,2013-05-06 05:06:00,
2013-05-06 01:11:00,58.3,36.9,30.11,SSE,157,0.0,4.2,45,0.00,,,0.00,WUHU21636XXSP,2013-05-06 05:11:00,
2013-05-06 01:16:00,58.1,36.7,30.11,SSE,157,0.0,3.8,45,0.00,,,0.00,WUHU21636XXSP,2013-05-06 05:16:00,
2013-05-06 01:21:00,57.6,36.9,30.11,SSE,157,0.0,2.9,46,0.00,,,0.00,WUHU21636XXSP,2013-05-06 05:21:00,
2013-05-06 01:26:00,57.2,36.5,30.11,SSE,157,0.0,0.0,46,0.00,,,0.00,WUHU21636XXSP,2013-05-06 05:26:00,
2013-05-06 01:31:00,57.0,36.9,30.11,SSE,157,0.0,2.0,47,0.00,,,0.00,WUHU21636XXSP,2013-05-06 05:31:00,
2013-05-06 01:36:00,56.8,36.7,30.11,SSE,157,0.0,2.0,47,0.00,,,0.00,WUHU21636XXSP,2013-05-06 05:36:00,
2013-05-06 01:41:00,56.5,36.9,30.11,SSE,157,0.0,0.0,48,0.00,,,0.00,WUHU21636XXSP,2013-05-06 05:41:00,
2013-05-06 01:46:00,55.9,36.9,30.11,SSE,157,0.0,0.0,49,0.00,,,0.00,WUHU21636XXSP,2013-05-06 05:46:00,
2013-05-06 01:51:00,55.4,37.0,30.10,SSE,157,0.0,0.0,50,0.00,,,0.00,WUHU21636XXSP,2013-05-06 05:51:00,
2013-05-06 01:56:00,55.0,37.0,30.10,SSE,157,0.0,0.0,51,0.00,,,0.00,WUHU21636XXSP,2013-05-06 05:56:00,
2013-05-06 02:01:00,54.7,36.9,30.11,SSE,157,0.0,0.0,51,0.00,,,0.00,WUHU21636XXSP,2013-05-06 06:01:00,
2013-05-06 02:06:00,54.3,36.9,30.10,SSE,157,0.0,0.0,52,0.00,,,0.00,WUHU21636XXSP,2013-05-06 06:06:00,
2013-05-06 02:11:00,54.1,36.7,30.10,SSE,157,0.0,0.0,52,0.00,,,0.00,WUHU21636XXSP,2013-05-06 06:11:00,
2013-05-06 02:16:00,53.8,36.9,30.10,SSE,157,0.0,0.0,53,0.00,,,0.00,WUHU21636XXSP,2013-05-06 06:16:00,
2013-05-06 02:21:00,53.2,36.3,30.10,SSE,157,0.0,0.0,53,0.00,,,0.00,WUHU21636XXSP,2013-05-06 06:21:00,
2013-05-06 02:26:00,52.9,36.1,30.10,SSE,157,0.0,0.0,53,0.00,,,0.00,WUHU21636XXSP,2013-05-06 06:26:00,
2013-05-06 02:31:00,52.2,36.3,30.10,SSE,157,0.0,0.0,55,0.00,,,0.00,WUHU21636XXSP,2013-05-06 06:31:00,
2013-05-06 02:36:00,51.4,36.1,30.10,SSE,157,0.0,0.0,56,0.00,,,0.00,WUHU21636XXSP,2013-05-06 06:36:00,
2013-05-06 02:41:00,51.1,36.1,30.11,SSE,157,0.0,0.0,57,0.00,,,0.00,WUHU21636XXSP,2013-05-06 06:41:00,
2013-05-06 02:46:00,50.7,36.0,30.11,SSE,157,0.0,0.0,57,0.00,,,0.00,WUHU21636XXSP,2013-05-06 06:46:00,
2013-05-06 02:51:00,50.4,36.0,30.11,SSE,157,0.0,0.0,58,0.00,,,0.00,WUHU21636XXSP,2013-05-06 06:51:00,
2013-05-06 02:56:00,50.0,36.7,30.11,SSE,157,0.0,0.0,60,0.00,,,0.00,WUHU21636XXSP,2013-05-06 06:56:00,
2013-05-06 03:01:00,49.8,36.5,30.10,SSE,157,0.0,0.0,61,0.00,,,0.00,WUHU21636XXSP,2013-05-06 07:01:00,
2013-05-06 03:06:00,49.8,36.5,30.10,SSE,157,0.0,0.0,61,0.00,,,0.00,WUHU21636XXSP,2013-05-06 07:06:00,
2013-05-06 03:11:00,49.8,36.5,30.10,SSE,157,0.0,0.0,61,0.00,,,0.00,WUHU21636XXSP,2013-05-06 07:11:00,
2013-05-06 03:16:00,49.6,36.7,30.10,SSE,157,0.0,0.0,61,0.00,,,0.00,WUHU21636XXSP,2013-05-06 07:16:00,
2013-05-06 03:21:00,49.1,36.1,30.10,SSE,157,0.0,0.0,61,0.00,,,0.00,WUHU21636XXSP,2013-05-06 07:21:00,
2013-05-06 03:26:00,48.9,36.0,30.10,SSE,157,0.0,0.0,62,0.00,,,0.00,WUHU21636XXSP,2013-05-06 07:26:00,
2013-05-06 03:31:00,48.6,36.5,30.10,SSE,157,0.0,0.0,63,0.00,,,0.00,WUHU21636XXSP,2013-05-06 07:31:00,
2013-05-06 03:36:00,48.4,36.3,30.10,SSE,157,0.0,0.0,64,0.00,,,0.00,WUHU21636XXSP,2013-05-06 07:36:00,
2013-05-06 03:41:00,48.4,36.3,30.10,SSE,157,0.0,0.0,65,0.00,,,0.00,WUHU21636XXSP,2013-05-06 07:41:00,
2013-05-06 03:46:00,48.0,36.3,30.10,SSE,157,0.0,0.0,64,0.00,,,0.00,WUHU21636XXSP,2013-05-06 07:46:00,
2013-05-06 03:51:00,47.5,36.1,30.10,SSE,157,0.0,0.0,65,0.00,,,0.00,WUHU21636XXSP,2013-05-06 07:51:00,
2013-05-06 03:56:00,47.3,36.9,30.10,SSE,157,0.0,0.0,67,0.00,,,0.00,WUHU21636XXSP,2013-05-06 07:56:00,
2013-05-06 04:01:00,46.9,36.9,30.10,SSE,157,0.0,0.0,68,0.00,,,0.00,WUHU21636XXSP,2013-05-06 08:01:00,
2013-05-06 04:06:00,46.4,36.3,30.10,SSE,157,0.0,0.0,68,0.00,,,0.00,WUHU21636XXSP,2013-05-06 08:06:00,
2013-05-06 04:11:00,46.0,36.3,30.10,SSE,157,0.0,0.0,69,0.00,,,0.00,WUHU21636XXSP,2013-05-06 08:11:00,
2013-05-06 04:16:00,45.7,35.6,30.10,SSE,157,0.0,0.0,68,0.00,,,0.00,WUHU21636XXSP,2013-05-06 08:16:00,
2013-05-06 04:21:00,45.5,35.4,30.10,SSE,157,0.0,0.0,69,0.00,,,0.00,WUHU21636XXSP,2013-05-06 08:21:00,
2013-05-06 04:26:00,45.1,35.4,30.10,SSE,157,0.0,0.0,69,0.00,,,0.00,WUHU21636XXSP,2013-05-06 08:26:00,
2013-05-06 04:31:00,45.0,35.2,30.10,SSE,157,0.0,0.0,70,0.00,,,0.00,WUHU21636XXSP,2013-05-06 08:31:00,
2013-05-06 04:36:00,45.0,35.2,30.10,SSE,157,0.0,0.0,74,0.00,,,0.00,WUHU21636XXSP,2013-05-06 08:36:00,
2013-05-06 04:41:00,44.6,37.0,30.10,SSE,157,0.0,0.0,75,0.00,,,0.00,WUHU21636XXSP,2013-05-06 08:41:00,
2013-05-06 04:46:00,44.2,36.3,30.10,SSE,157,0.0,0.0,74,0.00,,,0.00,WUHU21636XXSP,2013-05-06 08:46:00,
2013-05-06 04:51:00,43.9,36.3,30.10,SSE,157,0.0,0.0,74,0.00,,,0.00,WUHU21636XXSP,2013-05-06 08:51:00,
2013-05-06 04:56:00,43.5,35.6,30.10,SSE,157,0.0,0.0,74,0.00,,,0.00,WUHU21636XXSP,2013-05-06 08:56:00,
2013-05-06 05:01:00,43.3,35.6,30.11,SSE,157,0.0,0.0,74,0.00,,,0.00,WUHU21636XXSP,2013-05-06 09:01:00,
2013-05-06 05:06:00,43.2,35.6,30.10,SSE,157,0.0,0.0,76,0.00,,,0.00,WUHU21636XXSP,2013-05-06 09:06:00,
2013-05-06 05:11:00,43.0,35.4,30.10,SSE,157,0.0,0.0,75,0.00,,,0.00,WUHU21636XXSP,2013-05-06 09:11:00,
2013-05-06 05:16:00,42.6,34.9,30.11,SSE,157,0.0,0.0,74,0.00,,,0.00,WUHU21636XXSP,2013-05-06 09:16:00,
2013-05-06 05:21:00,42.4,34.7,30.11,SSE,157,0.0,0.0,74,0.00,,,0.00,WUHU21636XXSP,2013-05-06 09:21:00,
2013-05-06 05:26:00,41.9,34.5,30.11,SSE,157,0.0,0.0,75,0.00,,,0.00,WUHU21636XXSP,2013-05-06 09:26:00,
2013-05-06 05:31:00,41.9,34.5,30.11,SSE,157,0.0,0.0,77,0.00,,,0.00,WUHU21636XXSP,2013-05-06 09:31:00,
2013-05-06 05:36:00,41.7,34.5,30.11,SSE,157,0.0,0.0,77,0.00,,,0.00,WUHU21636XXSP,2013-05-06 09:36:00,
2013-05-06 05:41:00,41.2,34.3,30.11,SSE,157,0.0,0.0,77,0.00,,,0.00,WUHU21636XXSP,2013-05-06 09:41:00,
2013-05-06 05:46:00,41.2,34.3,30.11,SSE,157,0.0,0.0,77,0.00,,,0.00,WUHU21636XXSP,2013-05-06 09:46:00,
2013-05-06 05:51:00,41.0,34.2,30.11,SSE,157,0.0,0.0,77,0.00,,,0.00,WUHU21636XXSP,2013-05-06 09:51:00,
2013-05-06 05:56:00,41.2,35.4,30.11,SSE,157,0.0,0.0,80,0.00,,,0.00,WUHU21636XXSP,2013-05-06 09:56:00,
2013-05-06 06:01:00,40.8,35.1,30.11,SSE,157,0.0,0.0,80,0.00,,,0.00,WUHU21636XXSP,2013-05-06 10:01:00,
2013-05-06 06:06:00,40.6,34.9,30.11,SSE,157,0.0,0.0,80,0.00,,,0.00,WUHU21636XXSP,2013-05-06 10:06:00,
2013-05-06 06:11:00,40.3,34.2,30.11,SSE,157,0.0,0.0,79,0.00,,,0.00,WUHU21636XXSP,2013-05-06 10:11:00,
2013-05-06 06:16:00,40.1,34.0,30.12,SSE,157,0.0,0.0,79,0.00,,,0.00,WUHU21636XXSP,2013-05-06 10:16:00,
2013-05-06 06:21:00,39.9,33.4,30.12,SSE,157,0.0,0.0,78,0.00,,,0.00,WUHU21636XXSP,2013-05-06 10:21:00,
2013-05-06 06:26:00,39.7,33.6,30.12,SSE,157,0.0,0.0,78,0.00,,,0.00,WUHU21636XXSP,2013-05-06 10:26:00,
2013-05-06 06:31:00,39.9,34.2,30.12,SSE,157,0.0,0.0,80,0.00,,,0.00,WUHU21636XXSP,2013-05-06 10:31:00,
2013-05-06 06:36:00,39.9,34.2,30.11,SSE,157,0.0,0.0,81,0.00,,,0.00,WUHU21636XXSP,2013-05-06 10:36:00,
2013-05-06 06:41:00,40.3,34.9,30.12,SSE,157,0.0,0.0,81,0.00,,,0.00,WUHU21636XXSP,2013-05-06 10:41:00,
2013-05-06 06:46:00,40.3,34.9,30.12,SSE,157,0.0,0.0,81,0.00,,,0.00,WUHU21636XXSP,2013-05-06 10:46:00,
2013-05-06 06:51:00,40.1,34.7,30.12,SSE,157,0.0,0.0,81,0.00,,,0.00,WUHU21636XXSP,2013-05-06 10:51:00,
2013-05-06 06:56:00,40.3,34.9,30.12,SSE,157,0.0,0.0,81,0.00,,,0.00,WUHU21636XXSP,2013-05-06 10:56:00,
2013-05-06 07:01:00,40.6,35.4,30.12,SSE,157,0.0,0.0,82,0.00,,,0.00,WUHU21636XXSP,2013-05-06 11:01:00,
2013-05-06 07:06:00,40.8,36.0,30.12,SSE,157,0.0,0.0,83,0.00,,,0.00,WUHU21636XXSP,2013-05-06 11:06:00,
2013-05-06 07:11:00,40.8,36.0,30.12,SSE,157,0.0,0.0,83,0.00,,,0.00,WUHU21636XXSP,2013-05-06 11:11:00,
2013-05-06 07:16:00,40.8,36.0,30.13,SSE,157,0.0,0.0,82,0.00,,,0.00,WUHU21636XXSP,2013-05-06 11:16:00,
2013-05-06 07:21:00,41.2,36.0,30.13,SSE,157,0.0,0.0,83,0.00,,,0.00,WUHU21636XXSP,2013-05-06 11:21:00,
2013-05-06 07:26:00,41.5,36.7,30.13,SSE,157,0.0,0.0,83,0.00,,,0.00,WUHU21636XXSP,2013-05-06 11:26:00,
2013-05-06 07:31:00,42.1,37.4,30.13,SSE,157,0.0,0.0,84,0.00,,,0.00,WUHU21636XXSP,2013-05-06 11:31:00,
2013-05-06 07:36:00,42.4,37.6,30.13,SSE,157,0.0,0.0,83,0.00,,,0.00,WUHU21636XXSP,2013-05-06 11:36:00,
2013-05-06 07:41:00,42.8,37.9,30.13,SSE,157,0.0,0.0,83,0.00,,,0.00,WUHU21636XXSP,2013-05-06 11:41:00,
2013-05-06 07:46:00,43.3,38.5,30.13,SSE,157,0.0,0.0,82,0.00,,,0.00,WUHU21636XXSP,2013-05-06 11:46:00,
2013-05-06 07:51:00,44.1,38.8,30.13,SSE,157,0.0,0.0,82,0.00,,,0.00,WUHU21636XXSP,2013-05-06 11:51:00,
2013-05-06 07:56:00,44.4,39.2,30.13,SSE,157,0.0,0.0,82,0.00,,,0.00,WUHU21636XXSP,2013-05-06 11:56:00,
2013-05-06 08:01:00,45.7,40.1,30.13,SSE,157,0.0,0.0,81,0.00,,,0.00,WUHU21636XXSP,2013-05-06 12:01:00,
2013-05-06 08:06:00,47.1,41.9,30.13,SSE,157,0.0,0.0,82,0.00,,,0.00,WUHU21636XXSP,2013-05-06 12:06:00,
2013-05-06 08:11:00,48.6,42.8,30.13,SSE,157,0.0,0.0,81,0.00,,,0.00,WUHU21636XXSP,2013-05-06 12:11:00,
2013-05-06 08:16:00,50.4,43.3,30.13,SSE,157,0.0,0.0,77,0.00,,,0.00,WUHU21636XXSP,2013-05-06 12:16:00,
2013-05-06 08:21:00,51.4,43.7,30.13,SSE,157,0.0,0.0,75,0.00,,,0.00,WUHU21636XXSP,2013-05-06 12:21:00,
2013-05-06 08:26:00,52.2,43.0,30.13,SSE,157,0.0,0.0,71,0.00,,,0.00,WUHU21636XXSP,2013-05-06 12:26:00,
2013-05-06 08:31:00,53.6,43.2,30.14,SSE,157,0.0,0.0,68,0.00,,,0.00,WUHU21636XXSP,2013-05-06 12:31:00,
2013-05-06 08:36:00,54.7,43.9,30.14,SSE,157,0.0,0.0,67,0.00,,,0.00,WUHU21636XXSP,2013-05-06 12:36:00,
2013-05-06 08:41:00,55.6,43.9,30.14,SSE,157,0.0,0.0,65,0.00,,,0.00,WUHU21636XXSP,2013-05-06 12:41:00,
2013-05-06 08:46:00,57.6,45.3,30.14,SSE,157,0.0,0.0,64,0.00,,,0.00,WUHU21636XXSP,2013-05-06 12:46:00,
2013-05-06 08:51:00,58.6,46.0,30.14,SSE,157,0.0,0.0,63,0.00,,,0.00,WUHU21636XXSP,2013-05-06 12:51:00,
2013-05-06 08:56:00,59.7,45.9,30.14,SSE,157,0.0,0.0,60,0.00,,,0.00,WUHU21636XXSP,2013-05-06 12:56:00,
2013-05-06 09:01:00,60.6,45.7,30.14,SSE,157,0.0,0.0,58,0.00,,,0.00,WUHU21636XXSP,2013-05-06 13:01:00,
2013-05-06 09:06:00,61.5,43.7,30.14,SSE,157,0.0,0.0,52,0.00,,,0.00,WUHU21636XXSP,2013-05-06 13:06:00,
2013-05-06 09:11:00,62.2,44.2,30.14,SSE,157,0.0,0.0,52,0.00,,,0.00,WUHU21636XXSP,2013-05-06 13:11:00,
2013-05-06 09:16:00,63.5,45.0,30.14,SSE,157,0.0,0.0,51,0.00,,,0.00,WUHU21636XXSP,2013-05-06 13:16:00,
2013-05-06 09:21:00,64.2,46.0,30.14,SSE,157,0.0,0.0,52,0.00,,,0.00,WUHU21636XXSP,2013-05-06 13:21:00,
2013-05-06 09:26:00,64.9,45.1,30.14,SSE,157,0.0,0.0,49,0.00,,,0.00,WUHU21636XXSP,2013-05-06 13:26:00,
2013-05-06 09:31:00,66.2,46.4,30.14,SSE,157,0.0,0.0,49,0.00,,,0.00,WUHU21636XXSP,2013-05-06 13:31:00,
2013-05-06 09:36:00,66.9,45.9,30.14,SSE,157,0.0,0.0,47,0.00,,,0.00,WUHU21636XXSP,2013-05-06 13:36:00,
2013-05-06 09:41:00,68.2,46.4,30.13,SSE,157,0.0,0.0,46,0.00,,,0.00,WUHU21636XXSP,2013-05-06 13:41:00,
2013-05-06 09:46:00,68.9,45.9,30.14,SSE,157,0.0,0.0,43,0.00,,,0.00,WUHU21636XXSP,2013-05-06 13:46:00,
2013-05-06 09:51:00,69.6,46.0,30.14,SSE,157,0.0,0.0,43,0.00,,,0.00,WUHU21636XXSP,2013-05-06 13:51:00,
2013-05-06 09:56:00,71.2,46.2,30.13,SSE,157,0.0,0.0,41,0.00,,,0.00,WUHU21636XXSP,2013-05-06 13:56:00,
2013-05-06 10:01:00,72.9,45.5,30.14,SSE,157,0.0,0.0,38,0.00,,,0.00,WUHU21636XXSP,2013-05-06 14:01:00,
2013-05-06 10:06:00,73.2,43.7,30.14,SSE,157,0.0,0.0,35,0.00,,,0.00,WUHU21636XXSP,2013-05-06 14:06:00,
2013-05-06 10:11:00,74.1,46.0,30.14,SSE,157,0.0,0.0,37,0.00,,,0.00,WUHU21636XXSP,2013-05-06 14:11:00,
2013-05-06 10:16:00,74.8,44.4,30.13,SSE,157,0.0,0.0,34,0.00,,,0.00,WUHU21636XXSP,2013-05-06 14:16:00,
2013-05-06 10:21:00,74.1,46.0,30.13,WSW,247,0.0,0.0,37,0.00,,,0.00,WUHU21636XXSP,2013-05-06 14:21:00,
2013-05-06 10:26:00,74.7,43.3,30.13,SSE,157,0.0,2.0,33,0.00,,,0.00,WUHU21636XXSP,2013-05-06 14:26:00,
2013-05-06 10:31:00,75.4,44.8,30.13,SSE,157,0.0,2.0,34,0.00,,,0.00,WUHU21636XXSP,2013-05-06 14:31:00,
2013-05-06 10:36:00,75.7,44.4,30.13,SSE,157,0.0,0.0,34,0.00,,,0.00,WUHU21636XXSP,2013-05-06 14:36:00,
2013-05-06 10:41:00,74.5,42.4,30.13,NNW,337,3.5,3.5,32,0.00,,,0.00,WUHU21636XXSP,2013-05-06 14:41:00,
2013-05-06 10:46:00,73.9,43.5,30.13,NNW,337,0.0,3.5,34,0.00,,,0.00,WUHU21636XXSP,2013-05-06 14:46:00,
2013-05-06 10:51:00,74.3,45.3,30.13,NNW,337,7.6,8.0,36,0.00,,,0.00,WUHU21636XXSP,2013-05-06 14:51:00,
2013-05-06 10:56:00,73.2,42.1,30.13,NNW,337,0.8,10.5,33,0.00,,,0.00,WUHU21636XXSP,2013-05-06 14:56:00,
2013-05-06 11:01:00,73.6,41.7,30.13,West,270,0.0,10.5,32,0.00,,,0.00,WUHU21636XXSP,2013-05-06 15:01:00,
2013-05-06 11:06:00,74.7,44.2,30.13,NW,315,0.0,3.8,34,0.00,,,0.00,WUHU21636XXSP,2013-05-06 15:06:00,
2013-05-06 11:11:00,74.8,42.8,30.13,NW,315,0.0,0.0,30,0.00,,,0.00,WUHU21636XXSP,2013-05-06 15:11:00,
2013-05-06 11:16:00,75.4,43.3,30.13,North,0,0.0,0.0,32,0.00,,,0.00,WUHU21636XXSP,2013-05-06 15:16:00,
2013-05-06 11:21:00,76.6,43.7,30.13,SE,135,0.0,0.0,31,0.00,,,0.00,WUHU21636XXSP,2013-05-06 15:21:00,
2013-05-06 11:26:00,76.6,41.9,30.13,SE,135,3.8,3.8,29,0.00,,,0.00,WUHU21636XXSP,2013-05-06 15:26:00,
2013-05-06 11:31:00,76.3,44.1,30.13,West,270,1.1,3.8,29,0.00,,,0.00,WUHU21636XXSP,2013-05-06 15:31:00,
2013-05-06 11:36:00,75.9,43.0,30.13,NW,315,5.5,6.2,31,0.00,,,0.00,WUHU21636XXSP,2013-05-06 15:36:00,
2013-05-06 11:41:00,75.6,42.8,30.12,North,0,5.1,7.3,31,0.00,,,0.00,WUHU21636XXSP,2013-05-06 15:41:00,
2013-05-06 11:46:00,76.1,40.5,30.12,WSW,247,2.4,7.3,28,0.00,,,0.00,WUHU21636XXSP,2013-05-06 15:46:00,
2013-05-06 11:51:00,76.8,43.9,30.12,SE,135,0.0,5.1,31,0.00,,,0.00,WUHU21636XXSP,2013-05-06 15:51:00,
2013-05-06 11:56:00,77.4,42.4,30.12,NW,315,0.0,3.8,28,0.00,,,0.00,WUHU21636XXSP,2013-05-06 15:56:00,
2013-05-06 12:01:00,77.7,41.7,30.12,NNW,337,6.2,6.2,28,0.00,,,0.00,WUHU21636XXSP,2013-05-06 16:01:00,
2013-05-06 12:06:00,76.8,42.1,30.12,North,0,2.2,10.5,29,0.00,,,0.00,WUHU21636XXSP,2013-05-06 16:06:00,
2013-05-06 12:11:00,75.6,41.0,30.12,NNW,337,7.1,11.4,29,0.00,,,0.00,WUHU21636XXSP,2013-05-06 16:11:00,
2013-05-06 12:16:00,74.7,39.0,30.12,NNW,337,7.1,13.8,28,0.00,,,0.00,WUHU21636XXSP,2013-05-06 16:16:00,
2013-05-06 12:21:00,74.3,40.8,30.11,NNW,337,0.8,13.8,31,0.00,,,0.00,WUHU21636XXSP,2013-05-06 16:21:00,
2013-05-06 12:26:00,74.8,41.4,30.11,NW,315,7.6,13.6,30,0.00,,,0.00,WUHU21636XXSP,2013-05-06 16:26:00,
2013-05-06 12:31:00,75.4,41.7,30.11,NNW,337,4.2,16.5,30,0.00,,,0.00,WUHU21636XXSP,2013-05-06 16:31:00,
2013-05-06 12:36:00,75.6,41.9,30.11,North,0,1.5,16.5,30,0.00,,,0.00,WUHU21636XXSP,2013-05-06 16:36:00,
2013-05-06 12:41:00,75.7,41.0,30.11,North,0,0.0,15.2,29,0.00,,,0.00,WUHU21636XXSP,2013-05-06 16:41:00,
2013-05-06 12:46:00,76.6,43.7,30.11,NE,45,0.0,15.2,31,0.00,,,0.00,WUHU21636XXSP,2013-05-06 16:46:00,
2013-05-06 12:51:00,78.1,45.0,30.11,North,0,6.0,6.9,31,0.00,,,0.00,WUHU21636XXSP,2013-05-06 16:51:00,
2013-05-06 12:56:00,78.6,42.4,30.11,NNE,22,0.0,6.9,28,0.00,,,0.00,WUHU21636XXSP,2013-05-06 16:56:00,
2013-05-06 13:01:00,78.4,39.2,30.10,West,270,0.0,6.0,25,0.00,,,0.00,WUHU21636XXSP,2013-05-06 17:01:00,
2013-05-06 13:06:00,77.2,40.3,30.10,WSW,247,0.0,0.0,27,0.00,,,0.00,WUHU21636XXSP,2013-05-06 17:06:00,
2013-05-06 13:11:00,77.4,40.5,30.10,WNW,292,0.0,0.0,27,0.00,,,0.00,WUHU21636XXSP,2013-05-06 17:11:00,
2013-05-06 13:16:00,76.8,42.1,30.10,NNW,337,4.6,9.3,29,0.00,,,0.00,WUHU21636XXSP,2013-05-06 17:16:00,
2013-05-06 13:21:00,77.0,41.2,30.09,NNW,337,4.0,34.0,28,0.00,,,0.00,WUHU21636XXSP,2013-05-06 17:21:00,
2013-05-06 13:26:00,76.8,42.1,30.09,NNW,337,2.9,34.0,29,0.00,,,0.00,WUHU21636XXSP,2013-05-06 17:26:00,
2013-05-06 13:31:00,77.4,41.5,30.09,SE,135,0.0,12.0,28,0.00,,,0.00,WUHU21636XXSP,2013-05-06 17:31:00,
2013-05-06 13:36:00,78.6,41.4,30.08,WNW,292,0.6,2.9,27,0.00,,,0.00,WUHU21636XXSP,2013-05-06 17:36:00,
2013-05-06 13:41:00,78.8,42.6,30.09,WNW,292,3.8,3.8,28,0.00,,,0.00,WUHU21636XXSP,2013-05-06 17:41:00,
2013-05-06 13:46:00,78.4,41.4,30.09,SSE,157,0.0,4.0,27,0.00,,,0.00,WUHU21636XXSP,2013-05-06 17:46:00,
2013-05-06 13:51:00,77.7,44.6,30.09,NNW,337,2.6,12.0,31,0.00,,,0.00,WUHU21636XXSP,2013-05-06 17:51:00,
2013-05-06 13:56:00,77.9,44.8,30.09,NNE,22,6.4,19.6,31,0.00,,,0.00,WUHU21636XXSP,2013-05-06 17:56:00,
2013-05-06 14:01:00,78.4,43.3,30.09,West,270,0.0,19.6,29,0.00,,,0.00,WUHU21636XXSP,2013-05-06 18:01:00,
2013-05-06 14:06:00,78.4,42.3,30.09,NNE,22,11.4,25.7,28,0.00,,,0.00,WUHU21636XXSP,2013-05-06 18:06:00,
2013-05-06 14:11:00,77.5,45.1,30.08,NNW,337,4.6,25.7,32,0.00,,,0.00,WUHU21636XXSP,2013-05-06 18:11:00,
2013-05-06 14:16:00,76.1,44.8,30.08,NNW,337,6.7,21.6,33,0.00,,,0.00,WUHU21636XXSP,2013-05-06 18:16:00,
2013-05-06 14:21:00,76.1,43.9,30.08,NNE,22,1.1,21.6,32,0.00,,,0.00,WUHU21636XXSP,2013-05-06 18:21:00,
2013-05-06 14:26:00,75.9,42.3,30.08,North,0,2.0,16.5,30,0.00,,,0.00,WUHU21636XXSP,2013-05-06 18:26:00,
2013-05-06 14:31:00,76.3,43.3,30.08,North,0,2.0,16.5,31,0.00,,,0.00,WUHU21636XXSP,2013-05-06 18:31:00,
2013-05-06 14:36:00,77.2,43.3,30.08,North,0,1.5,13.8,30,0.00,,,0.00,WUHU21636XXSP,2013-05-06 18:36:00,
2013-05-06 14:41:00,77.0,42.3,30.08,NNE,22,0.0,13.8,29,0.00,,,0.00,WUHU21636XXSP,2013-05-06 18:41:00,
2013-05-06 14:46:00,75.7,41.0,30.08,NNW,337,11.1,21.6,29,0.00,,,0.00,WUHU21636XXSP,2013-05-06 18:46:00,
2013-05-06 14:51:00,74.1,42.3,30.08,NNW,337,10.7,21.6,32,0.00,,,0.00,WUHU21636XXSP,2013-05-06 18:51:00,
2013-05-06 14:56:00,74.8,40.3,30.08,NW,315,12.9,24.6,29,0.00,,,0.00,WUHU21636XXSP,2013-05-06 18:56:00,
2013-05-06 15:01:00,74.8,41.4,30.08,NNW,337,12.9,24.6,30,0.00,,,0.00,WUHU21636XXSP,2013-05-06 19:01:00,
2013-05-06 15:06:00,74.8,43.5,30.08,North,0,0.0,19.6,33,0.00,,,0.00,WUHU21636XXSP,2013-05-06 19:06:00,
2013-05-06 15:11:00,75.7,42.8,30.08,North,0,0.0,18.3,31,0.00,,,0.00,WUHU21636XXSP,2013-05-06 19:11:00,
2013-05-06 15:16:00,74.8,42.8,30.08,NNW,337,7.8,19.0,32,0.00,,,0.00,WUHU21636XXSP,2013-05-06 19:16:00,
2013-05-06 15:21:00,74.1,41.4,30.08,NNW,337,16.3,21.4,31,0.00,,,0.00,WUHU21636XXSP,2013-05-06 19:21:00,
2013-05-06 15:26:00,74.3,42.3,30.08,NW,315,6.7,21.4,32,0.00,,,0.00,WUHU21636XXSP,2013-05-06 19:26:00,
2013-05-06 15:31:00,74.8,41.4,30.07,NNE,22,6.4,20.3,30,0.00,,,0.00,WUHU21636XXSP,2013-05-06 19:31:00,
2013-05-06 15:36:00,73.9,42.1,30.07,NNW,337,10.9,22.1,32,0.00,,,0.00,WUHU21636XXSP,2013-05-06 19:36:00,
2013-05-06 15:41:00,74.1,40.6,30.07,North,0,10.9,33.5,30,0.00,,,0.00,WUHU21636XXSP,2013-05-06 19:41:00,
2013-05-06 15:46:00,74.1,43.0,30.07,North,0,4.2,33.5,33,0.00,,,0.00,WUHU21636XXSP,2013-05-06 19:46:00,
2013-05-06 15:51:00,74.8,45.9,30.07,NNW,337,5.1,20.3,36,0.00,,,0.00,WUHU21636XXSP,2013-05-06 19:51:00,
2013-05-06 15:56:00,75.0,44.4,30.07,North,0,0.0,14.5,34,0.00,,,0.00,WUHU21636XXSP,2013-05-06 19:56:00,
2013-05-06 16:01:00,75.2,44.6,30.06,NE,45,0.0,12.3,34,0.00,,,0.00,WUHU21636XXSP,2013-05-06 20:01:00,
2013-05-06 16:06:00,75.7,43.7,30.06,NE,45,0.0,12.3,32,0.00,,,0.00,WUHU21636XXSP,2013-05-06 20:06:00,
2013-05-06 16:11:00,75.4,44.1,30.06,NNE,22,0.0,6.4,33,0.00,,,0.00,WUHU21636XXSP,2013-05-06 20:11:00,
2013-05-06 16:16:00,75.4,44.1,30.06,NNW,337,3.8,6.4,33,0.00,,,0.00,WUHU21636XXSP,2013-05-06 20:16:00,
2013-05-06 16:21:00,74.8,45.9,30.06,North,0,2.9,3.8,36,0.00,,,0.00,WUHU21636XXSP,2013-05-06 20:21:00,
2013-05-06 16:26:00,74.8,43.5,30.06,NNW,337,0.0,15.2,33,0.00,,,0.00,WUHU21636XXSP,2013-05-06 20:26:00,
2013-05-06 16:31:00,75.4,43.3,30.05,NNE,22,0.0,15.2,32,0.00,,,0.00,WUHU21636XXSP,2013-05-06 20:31:00,
2013-05-06 16:36:00,74.7,42.6,30.06,NNW,337,1.1,12.3,32,0.00,,,0.00,WUHU21636XXSP,2013-05-06 20:36:00,
2013-05-06 16:41:00,73.9,39.6,30.05,NNW,337,5.3,20.5,29,0.00,,,0.00,WUHU21636XXSP,2013-05-06 20:41:00,
2013-05-06 16:46:00,73.8,42.6,30.05,NNW,337,6.0,20.8,33,0.00,,,0.00,WUHU21636XXSP,2013-05-06 20:46:00,
2013-05-06 16:51:00,73.6,42.4,30.05,NNW,337,10.9,20.8,33,0.00,,,0.00,WUHU21636XXSP,2013-05-06 20:51:00,
2013-05-06 16:56:00,74.3,42.3,30.05,NNW,337,2.9,17.8,32,0.00,,,0.00,WUHU21636XXSP,2013-05-06 20:56:00,
2013-05-06 17:01:00,74.8,41.4,30.05,ENE,67,0.0,17.8,30,0.00,,,0.00,WUHU21636XXSP,2013-05-06 21:01:00,
2013-05-06 17:06:00,75.4,43.3,30.05,NNW,337,0.0,2.9,32,0.00,,,0.00,WUHU21636XXSP,2013-05-06 21:06:00,
2013-05-06 17:11:00,75.4,43.3,30.05,ENE,67,0.0,1.7,32,0.00,,,0.00,WUHU21636XXSP,2013-05-06 21:11:00,
2013-05-06 17:16:00,75.4,43.3,30.05,NNW,337,1.5,2.9,33,0.00,,,0.00,WUHU21636XXSP,2013-05-06 21:16:00,
2013-05-06 17:21:00,75.2,43.2,30.05,NE,45,0.0,2.9,32,0.00,,,0.00,WUHU21636XXSP,2013-05-06 21:21:00,
2013-05-06 17:26:00,74.8,42.1,30.05,North,0,7.3,15.2,31,0.00,,,0.00,WUHU21636XXSP,2013-05-06 21:26:00,
2013-05-06 17:31:00,74.5,43.3,30.04,North,0,0.0,15.2,31,0.00,,,0.00,WUHU21636XXSP,2013-05-06 21:31:00,
2013-05-06 17:36:00,73.2,41.4,30.04,NNW,337,9.6,17.2,32,0.00,,,0.00,WUHU21636XXSP,2013-05-06 21:36:00,
2013-05-06 17:41:00,73.2,39.9,30.04,North,0,6.9,18.3,30,0.00,,,0.00,WUHU21636XXSP,2013-05-06 21:41:00,
2013-05-06 17:46:00,73.2,39.9,30.04,North,0,7.1,24.6,32,0.00,,,0.00,WUHU21636XXSP,2013-05-06 21:46:00,
2013-05-06 17:51:00,72.7,41.0,30.04,North,0,5.1,24.6,32,0.00,,,0.00,WUHU21636XXSP,2013-05-06 21:51:00,
2013-05-06 17:56:00,73.0,39.7,30.04,NNW,337,5.1,22.1,30,0.00,,,0.00,WUHU21636XXSP,2013-05-06 21:56:00,
2013-05-06 18:01:00,73.4,40.8,30.04,NNW,337,4.9,16.7,31,0.00,,,0.00,WUHU21636XXSP,2013-05-06 22:01:00,
2013-05-06 18:06:00,73.0,39.7,30.04,North,0,2.6,17.8,30,0.00,,,0.00,WUHU21636XXSP,2013-05-06 22:06:00,
2013-05-06 18:11:00,72.7,39.4,30.04,NNW,337,7.6,17.8,30,0.00,,,0.00,WUHU21636XXSP,2013-05-06 22:11:00,
2013-05-06 18:16:00,72.7,39.4,30.04,NNW,337,6.9,30.8,30,0.00,,,0.00,WUHU21636XXSP,2013-05-06 22:16:00,
2013-05-06 18:21:00,72.7,40.1,30.04,NNW,337,3.5,30.8,31,0.00,,,0.00,WUHU21636XXSP,2013-05-06 22:21:00,
2013-05-06 18:26:00,73.0,40.5,30.04,NNW,337,4.0,15.8,31,0.00,,,0.00,WUHU21636XXSP,2013-05-06 22:26:00,
2013-05-06 18:31:00,73.6,41.7,30.03,North,0,2.9,12.3,32,0.00,,,0.00,WUHU21636XXSP,2013-05-06 22:31:00,
2013-05-06 18:36:00,73.6,38.1,30.04,NNW,337,7.3,12.5,28,0.00,,,0.00,WUHU21636XXSP,2013-05-06 22:36:00,
2013-05-06 18:41:00,73.9,40.5,30.04,NW,315,3.1,31.7,30,0.00,,,0.00,WUHU21636XXSP,2013-05-06 22:41:00,
2013-05-06 18:46:00,73.9,40.5,30.03,North,0,0.0,31.7,30,0.00,,,0.00,WUHU21636XXSP,2013-05-06 22:46:00,
2013-05-06 18:51:00,73.9,41.2,30.03,NNW,337,0.0,13.1,31,0.00,,,0.00,WUHU21636XXSP,2013-05-06 22:51:00,
2013-05-06 18:56:00,72.7,41.7,30.03,NNW,337,3.5,14.9,33,0.00,,,0.00,WUHU21636XXSP,2013-05-06 22:56:00,
2013-05-06 19:01:00,72.5,39.4,30.03,NNW,337,3.8,14.9,30,0.00,,,0.00,WUHU21636XXSP,2013-05-06 23:01:00,
2013-05-06 19:06:00,72.1,41.9,30.03,NNW,337,3.1,9.8,33,0.00,,,0.00,WUHU21636XXSP,2013-05-06 23:06:00,
2013-05-06 19:11:00,72.0,41.0,30.03,NNW,337,1.7,9.8,33,0.00,,,0.00,WUHU21636XXSP,2013-05-06 23:11:00,
2013-05-06 19:16:00,72.7,43.2,30.03,NNW,337,0.0,7.8,35,0.00,,,0.00,WUHU21636XXSP,2013-05-06 23:16:00,
2013-05-06 19:21:00,72.9,42.6,30.04,NNW,337,0.0,1.3,34,0.00,,,0.00,WUHU21636XXSP,2013-05-06 23:21:00,
2013-05-06 19:26:00,73.0,43.5,30.04,NNW,337,0.0,3.8,34,0.00,,,0.00,WUHU21636XXSP,2013-05-06 23:26:00,
2013-05-06 19:31:00,73.0,43.5,30.04,NNW,337,0.0,3.8,37,0.00,,,0.00,WUHU21636XXSP,2013-05-06 23:31:00,
2013-05-06 19:36:00,72.7,42.4,30.04,NNW,337,0.0,0.2,34,0.00,,,0.00,WUHU21636XXSP,2013-05-06 23:36:00,
2013-05-06 19:41:00,72.5,42.3,30.04,NNW,337,0.0,0.2,34,0.00,,,0.00,WUHU21636XXSP,2013-05-06 23:41:00,
2013-05-06 19:46:00,72.5,41.5,30.04,West,270,0.0,0.0,33,0.00,,,0.00,WUHU21636XXSP,2013-05-06 23:46:00,
2013-05-06 19:51:00,72.3,42.8,30.04,WSW,247,0.0,0.0,34,0.00,,,0.00,WUHU21636XXSP,2013-05-06 23:51:00,
2013-05-06 19:56:00,72.3,42.8,30.04,WSW,247,0.0,0.0,34,0.00,,,0.00,WUHU21636XXSP,2013-05-06 23:56:00,
2013-05-06 20:01:00,72.0,41.9,30.04,NW,315,0.0,0.0,33,0.00,,,0.00,WUHU21636XXSP,2013-05-07 00:01:00,
2013-05-06 20:06:00,71.6,41.5,30.04,NW,315,0.0,0.0,34,0.00,,,0.00,WUHU21636XXSP,2013-05-07 00:06:00,
2013-05-06 20:11:00,71.2,41.2,30.04,West,270,0.0,0.0,34,0.00,,,0.00,WUHU21636XXSP,2013-05-07 00:11:00,
2013-05-06 20:16:00,71.2,41.2,30.05,NW,315,0.0,0.0,34,0.00,,,0.00,WUHU21636XXSP,2013-05-07 00:16:00,
2013-05-06 20:21:00,70.7,40.6,30.05,West,270,0.0,0.0,34,0.00,,,0.00,WUHU21636XXSP,2013-05-07 00:21:00,
2013-05-06 20:26:00,70.5,40.6,30.05,SW,225,0.0,0.0,34,0.00,,,0.00,WUHU21636XXSP,2013-05-07 00:26:00,
2013-05-06 20:31:00,70.0,40.8,30.05,South,180,0.0,0.0,35,0.00,,,0.00,WUHU21636XXSP,2013-05-07 00:31:00,
2013-05-06 20:36:00,69.6,40.5,30.05,South,180,0.0,0.0,35,0.00,,,0.00,WUHU21636XXSP,2013-05-07 00:36:00,
2013-05-06 20:41:00,69.1,39.9,30.05,SSE,157,0.0,0.0,35,0.00,,,0.00,WUHU21636XXSP,2013-05-07 00:41:00,
2013-05-06 20:46:00,68.4,39.4,30.05,SSE,157,0.0,0.0,35,0.00,,,0.00,WUHU21636XXSP,2013-05-07 00:46:00,
2013-05-06 20:51:00,67.8,38.8,30.05,West,270,0.0,0.0,35,0.00,,,0.00,WUHU21636XXSP,2013-05-07 00:51:00,
2013-05-06 20:56:00,67.6,38.7,30.06,WNW,292,0.0,0.0,35,0.00,,,0.00,WUHU21636XXSP,2013-05-07 00:56:00,
2013-05-06 21:01:00,66.9,38.1,30.06,WNW,292,0.0,0.0,35,0.00,,,0.00,WUHU21636XXSP,2013-05-07 01:01:00,
2013-05-06 21:06:00,66.7,38.7,30.06,NW,315,0.0,0.0,36,0.00,,,0.00,WUHU21636XXSP,2013-05-07 01:06:00,
2013-05-06 21:11:00,66.4,38.3,30.06,SSW,202,0.8,0.8,36,0.00,,,0.00,WUHU21636XXSP,2013-05-07 01:11:00,
2013-05-06 21:16:00,65.8,37.9,30.06,SSW,202,0.0,0.8,36,0.00,,,0.00,WUHU21636XXSP,2013-05-07 01:16:00,
2013-05-06 21:21:00,65.3,38.8,30.06,SSW,202,0.0,0.8,38,0.00,,,0.00,WUHU21636XXSP,2013-05-07 01:21:00,
2013-05-06 21:26:00,64.8,38.3,30.06,SSW,202,0.0,0.0,38,0.00,,,0.00,WUHU21636XXSP,2013-05-07 01:26:00,
2013-05-06 21:31:00,64.0,38.5,30.06,SSW,202,0.0,0.0,39,0.00,,,0.00,WUHU21636XXSP,2013-05-07 01:31:00,
2013-05-06 21:36:00,63.3,38.5,30.06,SSW,202,0.0,0.0,40,0.00,,,0.00,WUHU21636XXSP,2013-05-07 01:36:00,
2013-05-06 21:41:00,63.0,38.8,30.07,SSW,202,0.0,0.0,41,0.00,,,0.00,WUHU21636XXSP,2013-05-07 01:41:00,
2013-05-06 21:46:00,62.2,39.2,30.07,SSW,202,0.0,0.0,43,0.00,,,0.00,WUHU21636XXSP,2013-05-07 01:46:00,
2013-05-06 21:51:00,61.9,39.0,30.07,SSW,202,0.0,0.0,43,0.00,,,0.00,WUHU21636XXSP,2013-05-07 01:51:00,
2013-05-06 21:56:00,61.5,38.7,30.07,SSW,202,0.0,0.0,43,0.00,,,0.00,WUHU21636XXSP,2013-05-07 01:56:00,
2013-05-06 22:01:00,61.2,38.3,30.07,SSE,157,0.0,0.0,43,0.00,,,0.00,WUHU21636XXSP,2013-05-07 02:01:00,
2013-05-06 22:06:00,61.2,38.3,30.07,SSE,157,0.0,0.0,42,0.00,,,0.00,WUHU21636XXSP,2013-05-07 02:06:00,
2013-05-06 22:11:00,61.9,38.3,30.07,SE,135,0.0,0.0,42,0.00,,,0.00,WUHU21636XXSP,2013-05-07 02:11:00,
2013-05-06 22:16:00,62.1,38.5,30.07,SE,135,0.0,0.0,42,0.00,,,0.00,WUHU21636XXSP,2013-05-07 02:16:00,
2013-05-06 22:21:00,62.1,38.5,30.07,South,180,0.0,0.0,41,0.00,,,0.00,WUHU21636XXSP,2013-05-07 02:21:00,
2013-05-06 22:26:00,62.1,38.5,30.07,ESE,112,0.0,0.0,42,0.00,,,0.00,WUHU21636XXSP,2013-05-07 02:26:00,
2013-05-06 22:31:00,62.1,38.5,30.07,ENE,67,0.0,0.0,42,0.00,,,0.00,WUHU21636XXSP,2013-05-07 02:31:00,
2013-05-06 22:36:00,61.9,38.3,30.07,ENE,67,0.0,0.0,42,0.00,,,0.00,WUHU21636XXSP,2013-05-07 02:36:00,
2013-05-06 22:41:00,61.9,38.3,30.07,ENE,67,0.0,0.0,42,0.00,,,0.00,WUHU21636XXSP,2013-05-07 02:41:00,
2013-05-06 22:46:00,61.9,38.3,30.07,ENE,67,0.0,0.0,42,0.00,,,0.00,WUHU21636XXSP,2013-05-07 02:46:00,
2013-05-06 22:51:00,61.7,38.1,30.08,ENE,67,0.0,0.0,42,0.00,,,0.00,WUHU21636XXSP,2013-05-07 02:51:00,
2013-05-06 22:56:00,61.5,38.1,30.08,ENE,67,0.0,0.0,43,0.00,,,0.00,WUHU21636XXSP,2013-05-07 02:56:00,
2013-05-06 23:01:00,61.0,38.1,30.08,ENE,67,0.0,0.0,43,0.00,,,0.00,WUHU21636XXSP,2013-05-07 03:01:00,
2013-05-06 23:06:00,61.0,38.1,30.08,ENE,67,0.0,0.0,44,0.00,,,0.00,WUHU21636XXSP,2013-05-07 03:06:00,
2013-05-06 23:11:00,60.6,38.3,30.08,ENE,67,0.0,0.0,44,0.00,,,0.00,WUHU21636XXSP,2013-05-07 03:11:00,
2013-05-06 23:16:00,60.4,38.3,30.08,SE,135,0.0,0.0,44,0.00,,,0.00,WUHU21636XXSP,2013-05-07 03:16:00,
2013-05-06 23:21:00,60.4,38.3,30.07,SE,135,0.0,0.0,44,0.00,,,0.00,WUHU21636XXSP,2013-05-07 03:21:00,
2013-05-06 23:26:00,60.4,38.3,30.08,SE,135,2.4,2.4,43,0.00,,,0.00,WUHU21636XXSP,2013-05-07 03:26:00,
2013-05-06 23:31:00,60.4,38.3,30.08,ESE,112,0.0,2.4,42,0.00,,,0.00,WUHU21636XXSP,2013-05-07 03:31:00,
2013-05-06 23:36:00,61.0,36.3,30.08,SE,135,0.4,3.3,40,0.00,,,0.00,WUHU21636XXSP,2013-05-07 03:36:00,
2013-05-06 23:41:00,60.6,39.0,30.08,SE,135,0.0,3.3,45,0.00,,,0.00,WUHU21636XXSP,2013-05-07 03:41:00,
2013-05-06 23:46:00,59.7,38.7,30.08,SE,135,0.0,0.4,46,0.00,,,0.00,WUHU21636XXSP,2013-05-07 03:46:00,
2013-05-06 23:51:00,58.1,37.8,30.08,SE,135,0.0,0.0,47,0.00,,,0.00,WUHU21636XXSP,2013-05-07 03:51:00,
2013-05-06 23:56:00,57.4,38.8,30.08,SE,135,0.0,0.0,50,0.00,,,0.00,WUHU21636XXSP,2013-05-07 03:56:00,